Location: C�mpuri de-Sus
(45.9500°N, 22.5500°E)
Time: 12:30:50
(UTC+00:00)

CZ-4 R/B - Pass Details

Date: 24 October 2021
Orbit: 530 x 595 km, 97.8° (Epoch: 07 December)

Event Time Altitude Azimuth Distance (km) Brightness Sun altitude
Exits shadow 18:01:20 - 198° (SSW) 2,304 4.6 -27.2°
Reaches altitude 10° 18:02:34 10° 206° (SSW) 1,857 4.1 -27.4°
Maximum altitude 18:06:00 27° 265° (W) 1,121 3.4 -28.0°
Drops below altitude 10° 18:09:32 10° 324° (NW) 1,904 4.6 -28.6°
Sets 18:11:59 0° 337° (NNW) 2,819 5.4 -29.0°
